DAL9892 KEYW-KATL

Flight info

Callsign DAL9892
Flight time N/A
Altitude 36000
Route BUFTT1 JAYMC Q110 DAWWN BEORN HOBTT3
Aircraft A320/M-SDE3FGHIRWY/LB1

Departure

Time 2026-05-03 21:51
Airport Key West International Airport (KEYW)

Arrival

Time N/A
Airport Hartsfield Jackson Atlanta International Airport (KATL)
Time Latitude Longitude Altitude Speed Heading
2026-05-03 20:57 24.55474 -81.75486 20 ft 0 kts 227°
2026-05-03 21:31 24.55473 -81.75488 19 ft 0 kts 227°
2026-05-03 21:32 24.55478 -81.75481 20 ft 2 kts 227°
2026-05-03 21:32 24.55490 -81.75470 20 ft 2 kts 207°
2026-05-03 21:32 24.55500 -81.75461 21 ft 2 kts 262°
2026-05-03 21:32 24.55497 -81.75444 22 ft 3 kts 333°
2026-05-03 21:33 24.55487 -81.75439 21 ft 0 kts 334°
2026-05-03 21:39 24.55488 -81.75439 21 ft 1 kts 334°
2026-05-03 21:39 24.55508 -81.75450 22 ft 3 kts 330°
2026-05-03 21:39 24.55520 -81.75463 22 ft 5 kts 306°
2026-05-03 21:40 24.55528 -81.75504 20 ft 5 kts 274°
2026-05-03 21:40 24.55529 -81.75543 20 ft 5 kts 272°
2026-05-03 21:40 24.55530 -81.75574 20 ft 4 kts 271°
2026-05-03 21:40 24.55529 -81.75631 20 ft 8 kts 270°
2026-05-03 21:41 24.55529 -81.75686 20 ft 6 kts 270°
2026-05-03 21:41 24.55529 -81.75731 20 ft 5 kts 270°
2026-05-03 21:41 24.55529 -81.75767 20 ft 5 kts 267°
2026-05-03 21:41 24.55528 -81.75804 20 ft 7 kts 268°
2026-05-03 21:42 24.55527 -81.75860 18 ft 8 kts 269°
2026-05-03 21:42 24.55525 -81.75920 17 ft 8 kts 269°
2026-05-03 21:42 24.55525 -81.75986 15 ft 10 kts 269°
2026-05-03 21:42 24.55524 -81.76060 13 ft 10 kts 269°
2026-05-03 21:43 24.55524 -81.76132 13 ft 9 kts 269°
2026-05-03 21:43 24.55523 -81.76191 13 ft 7 kts 269°
2026-05-03 21:43 24.55523 -81.76239 13 ft 6 kts 269°
2026-05-03 21:43 24.55523 -81.76278 13 ft 5 kts 269°
2026-05-03 21:44 24.55522 -81.76310 13 ft 4 kts 269°
2026-05-03 21:44 24.55521 -81.76342 13 ft 4 kts 269°
2026-05-03 21:44 24.55521 -81.76371 13 ft 3 kts 269°
2026-05-03 21:44 24.55520 -81.76406 12 ft 5 kts 269°
2026-05-03 21:45 24.55520 -81.76443 12 ft 5 kts 269°
2026-05-03 21:45 24.55520 -81.76480 12 ft 4 kts 269°
2026-05-03 21:45 24.55519 -81.76511 11 ft 4 kts 269°
2026-05-03 21:45 24.55519 -81.76535 12 ft 5 kts 269°
2026-05-03 21:46 24.55519 -81.76568 12 ft 4 kts 269°
2026-05-03 21:46 24.55518 -81.76588 12 ft 1 kts 269°
2026-05-03 21:46 24.55519 -81.76599 12 ft 2 kts 271°
2026-05-03 21:46 24.55520 -81.76615 13 ft 4 kts 277°
2026-05-03 21:47 24.55521 -81.76619 13 ft 0 kts 286°
2026-05-03 21:49 24.55538 -81.76646 14 ft 7 kts 322°
2026-05-03 21:50 24.55584 -81.76664 15 ft 7 kts
2026-05-03 21:50 24.55593 -81.76658 14 ft 4 kts 40°
2026-05-03 21:50 24.55605 -81.76623 14 ft 10 kts 81°
2026-05-03 21:50 24.55617 -81.76358 11 ft 77 kts 90°
2026-05-03 21:51 24.55622 -81.76104 14 ft 105 kts 87°
2026-05-03 21:51 24.55678 -81.75515 41 ft 143 kts 79°
2026-05-03 21:51 24.55766 -81.74592 621 ft 141 kts 83°
2026-05-03 21:51 24.56089 -81.73557 1263 ft 151 kts 47°
2026-05-03 21:52 24.57002 -81.72979 1851 ft 159 kts
2026-05-03 21:52 24.58165 -81.72882 2180 ft 175 kts
2026-05-03 21:52 24.59437 -81.72798 2424 ft 198 kts
2026-05-03 21:52 24.60906 -81.72696 2645 ft 223 kts
2026-05-03 21:53 24.62532 -81.72580 2965 ft 247 kts
2026-05-03 21:53 24.64326 -81.72449 3399 ft 267 kts
2026-05-03 21:53 24.66205 -81.72308 4141 ft 274 kts
2026-05-03 21:53 24.68144 -81.72161 4768 ft 282 kts
2026-05-03 21:54 24.70096 -81.71977 5104 ft 288 kts
2026-05-03 21:54 24.72016 -81.71297 5976 ft 292 kts 24°
2026-05-03 21:54 24.73711 -81.70030 6780 ft 297 kts 42°
2026-05-03 21:54 24.75144 -81.68387 7528 ft 300 kts 45°
2026-05-03 21:55 24.76575 -81.66709 8290 ft 303 kts 45°
2026-05-03 21:55 24.78029 -81.65003 9071 ft 306 kts 45°
2026-05-03 21:55 24.79495 -81.63289 9793 ft 311 kts 44°
2026-05-03 21:55 24.80979 -81.61559 10335 ft 320 kts 44°
2026-05-03 21:56 24.82567 -81.59713 10547 ft 344 kts 44°
2026-05-03 21:56 24.84282 -81.57752 10718 ft 367 kts 44°
2026-05-03 21:56 24.86132 -81.55716 10938 ft 383 kts 43°
2026-05-03 21:56 24.88059 -81.53653 11475 ft 389 kts 42°
2026-05-03 21:57 24.90010 -81.51587 12074 ft 393 kts 42°
2026-05-03 21:57 24.91985 -81.49491 12660 ft 398 kts 42°
2026-05-03 21:57 24.93987 -81.47354 13254 ft 402 kts 42°
2026-05-03 21:57 24.96000 -81.45195 13824 ft 406 kts 42°
2026-05-03 21:58 24.97344 -81.43749 14166 ft 408 kts 42°
2026-05-03 21:58 24.99378 -81.41554 14668 ft 412 kts 42°
2026-05-03 21:58 25.02112 -81.38597 15329 ft 418 kts 42°
2026-05-03 21:58 25.03517 -81.37077 15664 ft 420 kts 42°
2026-05-03 21:59 25.06278 -81.34088 16305 ft 426 kts 42°
2026-05-03 21:59 25.07721 -81.32525 16650 ft 428 kts 42°
2026-05-03 21:59 25.09861 -81.30210 17118 ft 433 kts 42°
2026-05-03 21:59 25.12000 -81.27896 17592 ft 437 kts 42°
2026-05-03 22:00 25.14159 -81.25560 18086 ft 441 kts 42°
2026-05-03 22:00 25.16371 -81.23161 18534 ft 445 kts 42°
2026-05-03 22:00 25.18594 -81.20749 18950 ft 449 kts 42°
2026-05-03 22:00 25.20821 -81.18330 19360 ft 452 kts 42°
2026-05-03 22:01 25.23075 -81.15880 19764 ft 456 kts 42°
2026-05-03 22:01 25.25337 -81.13419 20166 ft 459 kts 42°
2026-05-03 22:01 25.27622 -81.10932 20555 ft 463 kts 42°
2026-05-03 22:01 25.30653 -81.07633 21051 ft 467 kts 42°
2026-05-03 22:02 25.32209 -81.05939 21298 ft 469 kts 41°
2026-05-03 22:02 25.34664 -81.03588 21657 ft 469 kts 32°
2026-05-03 22:02 25.37441 -81.01707 22025 ft 467 kts 21°
2026-05-03 22:02 25.40459 -81.00374 22340 ft 464 kts 11°
2026-05-03 22:03 25.43551 -80.99642 22669 ft 460 kts
2026-05-03 22:03 25.46677 -80.99418 23000 ft 458 kts 356°
2026-05-03 22:03 25.49946 -80.99284 23359 ft 461 kts 356°
2026-05-03 22:03 25.53150 -80.99146 23665 ft 463 kts 356°
2026-05-03 22:04 25.56383 -80.99005 23937 ft 465 kts 356°
2026-05-03 22:04 25.59586 -80.98866 24203 ft 467 kts 356°
2026-05-03 22:04 25.62848 -80.98723 24491 ft 469 kts 356°
2026-05-03 22:04 25.66163 -80.98578 24768 ft 471 kts 356°
2026-05-03 22:05 25.69392 -80.98436 25061 ft 473 kts 355°
2026-05-03 22:05 25.72680 -80.98290 25323 ft 475 kts 355°
2026-05-03 22:05 25.75993 -80.98147 25596 ft 476 kts 355°
2026-05-03 22:05 25.79314 -80.98007 25863 ft 478 kts 355°
2026-05-03 22:06 25.82638 -80.97870 26118 ft 479 kts 355°
2026-05-03 22:06 25.85977 -80.97732 26371 ft 481 kts 355°
2026-05-03 22:06 25.89326 -80.97591 26657 ft 483 kts 355°
2026-05-03 22:06 25.92690 -80.97449 26938 ft 484 kts 355°
2026-05-03 22:07 25.96023 -80.97306 27149 ft 486 kts 355°
2026-05-03 22:07 25.99405 -80.97156 27412 ft 488 kts 355°
2026-05-03 22:07 26.02814 -80.97003 27580 ft 491 kts 355°
2026-05-03 22:07 26.06235 -80.96852 27801 ft 493 kts 355°
2026-05-03 22:08 26.09661 -80.96704 28011 ft 494 kts 355°
2026-05-03 22:08 26.13101 -80.96556 28256 ft 495 kts 355°
2026-05-03 22:08 26.16521 -80.96407 28578 ft 494 kts 355°
2026-05-03 22:08 26.19955 -80.96254 28885 ft 493 kts 355°
2026-05-03 22:09 26.23393 -80.96101 29211 ft 492 kts 354°
2026-05-03 22:09 26.26803 -80.95952 29555 ft 491 kts 354°
2026-05-03 22:09 26.30195 -80.95806 29868 ft 491 kts 354°
2026-05-03 22:10 26.37027 -80.95644 30380 ft 484 kts 347°
2026-05-03 22:10 26.40279 -80.96180 30627 ft 473 kts 338°
2026-05-03 22:10 26.43409 -80.97269 30874 ft 461 kts 329°
2026-05-03 22:10 26.46218 -80.98793 31117 ft 450 kts 320°
2026-05-03 22:11 26.48847 -81.00671 31376 ft 446 kts 317°
2026-05-03 22:11 26.51435 -81.02567 31666 ft 446 kts 317°
2026-05-03 22:11 26.54020 -81.04463 32035 ft 444 kts 317°
2026-05-03 22:11 26.56602 -81.06358 32418 ft 443 kts 317°
2026-05-03 22:12 26.59160 -81.08233 32802 ft 442 kts 316°
2026-05-03 22:12 26.61734 -81.10119 33172 ft 439 kts 316°
2026-05-03 22:12 26.64285 -81.11984 33501 ft 437 kts 315°
2026-05-03 22:12 26.66819 -81.13842 33790 ft 435 kts 315°
2026-05-03 22:13 26.69311 -81.15673 34067 ft 434 kts 315°
2026-05-03 22:13 26.71863 -81.17550 34307 ft 433 kts 315°
2026-05-03 22:13 26.74348 -81.19379 34533 ft 432 kts 315°
2026-05-03 22:13 26.76856 -81.21227 34765 ft 432 kts 315°
2026-05-03 22:14 26.79366 -81.23078 35007 ft 431 kts 315°
2026-05-03 22:14 26.81871 -81.24926 35225 ft 431 kts 315°
2026-05-03 22:14 26.84380 -81.26773 35423 ft 431 kts 315°
2026-05-03 22:14 26.86878 -81.28613 35615 ft 430 kts 315°
2026-05-03 22:15 26.89382 -81.30461 35824 ft 429 kts 315°
2026-05-03 22:15 26.91865 -81.32295 36016 ft 430 kts 314°
2026-05-03 22:15 26.94363 -81.34144 36061 ft 432 kts 314°
2026-05-03 22:16 26.99397 -81.37842 36061 ft 434 kts 315°
2026-05-03 22:16 27.04595 -81.41347 36060 ft 438 kts 317°
2026-05-03 22:17 27.09844 -81.44755 36063 ft 438 kts 317°
2026-05-03 22:17 27.15095 -81.48195 36065 ft 437 kts 317°
2026-05-03 22:18 27.20338 -81.51676 36064 ft 437 kts 317°
2026-05-03 22:18 27.25551 -81.55158 36096 ft 436 kts 316°
2026-05-03 22:19 27.30746 -81.58645 36091 ft 437 kts 316°
2026-05-03 22:19 27.35952 -81.62138 36091 ft 437 kts 316°
2026-05-03 22:20 27.41196 -81.65643 36111 ft 437 kts 316°
2026-05-03 22:20 27.46394 -81.69122 36098 ft 436 kts 316°
2026-05-03 22:21 27.51607 -81.72628 36084 ft 436 kts 316°
2026-05-03 22:21 27.56790 -81.76111 36089 ft 436 kts 316°
2026-05-03 22:22 27.61978 -81.79598 36088 ft 435 kts 316°
2026-05-03 22:22 27.67179 -81.83101 36084 ft 435 kts 316°
2026-05-03 22:23 27.72371 -81.86605 36083 ft 435 kts 316°
2026-05-03 22:23 27.77496 -81.90060 36090 ft 435 kts 316°
2026-05-03 22:24 27.82738 -81.93605 36094 ft 435 kts 316°
2026-05-03 22:24 27.87948 -81.97126 36079 ft 433 kts 316°
2026-05-03 22:25 27.93089 -82.00608 36078 ft 433 kts 316°
2026-05-03 22:25 27.98070 -82.03987 36073 ft 434 kts 316°
2026-05-03 22:26 28.03249 -82.07506 36077 ft 434 kts 316°
2026-05-03 22:26 28.08415 -82.11016 36071 ft 434 kts 316°
2026-05-03 22:27 28.13524 -82.14578 36078 ft 433 kts 315°
2026-05-03 22:27 28.18636 -82.18239 36107 ft 432 kts 314°
2026-05-03 22:28 28.23656 -82.21854 36102 ft 432 kts 314°
2026-05-03 22:28 28.28695 -82.25464 36099 ft 432 kts 314°
2026-05-03 22:29 28.33798 -82.29103 36096 ft 433 kts 315°
2026-05-03 22:29 28.38844 -82.32697 36096 ft 433 kts 315°
2026-05-03 22:30 28.43994 -82.36378 36094 ft 432 kts 314°
2026-05-03 22:30 28.49075 -82.40029 36129 ft 432 kts 314°
2026-05-03 22:31 28.54111 -82.43648 36088 ft 432 kts 314°
2026-05-03 22:31 28.59177 -82.47285 36080 ft 432 kts 314°
2026-05-03 22:32 28.64286 -82.50959 36086 ft 433 kts 314°
2026-05-03 22:32 28.69364 -82.54606 36090 ft 434 kts 314°
2026-05-03 22:33 28.74489 -82.58295 36085 ft 433 kts 314°
2026-05-03 22:33 28.79564 -82.61962 36120 ft 434 kts 314°
2026-05-03 22:34 28.84634 -82.65626 36117 ft 434 kts 314°
2026-05-03 22:34 28.89729 -82.69315 36110 ft 433 kts 314°
2026-05-03 22:35 28.94804 -82.72988 36105 ft 433 kts 314°
2026-05-03 22:35 28.99838 -82.76635 36088 ft 433 kts 314°
2026-05-03 22:36 29.04942 -82.80334 36115 ft 433 kts 314°
2026-05-03 22:36 29.09991 -82.83999 36093 ft 430 kts 314°
2026-05-03 22:37 29.15045 -82.87676 36087 ft 430 kts 314°
2026-05-03 22:37 29.20083 -82.91358 36090 ft 430 kts 314°
2026-05-03 22:38 29.25162 -82.95065 36091 ft 431 kts 314°
2026-05-03 22:38 29.30214 -82.98750 36097 ft 431 kts 314°
2026-05-03 22:39 29.35275 -83.02446 36104 ft 431 kts 314°
2026-05-03 22:39 29.40294 -83.06121 35738 ft 428 kts 314°
2026-05-03 22:39 29.42807 -83.07964 35017 ft 428 kts 315°
2026-05-03 22:40 29.45310 -83.09800 34408 ft 427 kts 315°
2026-05-03 22:40 29.47804 -83.11631 34183 ft 427 kts 315°
2026-05-03 22:40 29.50324 -83.13482 34069 ft 428 kts 315°
2026-05-03 22:41 29.55339 -83.17161 34094 ft 429 kts 315°
2026-05-03 22:41 29.60381 -83.20866 34091 ft 430 kts 315°
2026-05-03 22:42 29.65411 -83.24579 34093 ft 429 kts 315°
2026-05-03 22:42 29.70435 -83.28299 34096 ft 430 kts 315°
2026-05-03 22:43 29.75445 -83.32000 34101 ft 431 kts 316°
2026-05-03 22:43 29.80494 -83.35719 34105 ft 430 kts 315°
2026-05-03 22:44 29.85514 -83.39441 34114 ft 430 kts 315°
2026-05-03 22:44 29.90553 -83.43166 34119 ft 431 kts 316°